Flag for Argentina

Past Weather in Jujuy, Jujuy, Argentina — Yesterday and Last 2 Weeks

Now
68 °F

Sunny.


Feels Like: 68 °F
Forecast: 70 / 36 °F
Wind: 12 mph from Northeast

Location: Jujuy Aerodrome
Current Time: Aug 13, 2020 at 6:23:06 pm
Latest Report: Aug 13, 2020 at 5:00 pm
Visibility: 10 mi
Pressure29.83 "Hg(21.29 "Hg at 2895m altitude)
Humidity: 23%
Dew Point: 28 °F
Location of JujuyLocation

Past Weather in Jujuy — Graph

°F

Jujuy Temperature Yesterday

Maximum temperature yesterday: 64 °F (at 3:00 pm)
Minimum temperature yesterday: 36 °F (at 7:00 am)
Average temperature yesterday: 51 °F

High & Low Weather Summary for the Past Weeks

 TemperatureHumidityPressure
High86 °F (Aug 2, 3:00 pm)88% (Aug 11, 12:00 am)30.27 "Hg (Aug 11, 12:00 am)
Low32 °F (Jul 30, 5:00 am)11% (Aug 11, 8:00 am)29.74 "Hg (Aug 10, 4:00 pm)
Average61 °F49%30.06 "Hg
* Reported Jul 29 5:00 pm — Aug 13 5:00 pm, Jujuy. Weather by CustomWeather, © 2020

Note: Actual official high and low records may vary slightly from our data, if they occured in-between our weather recording intervals... More about our weather records

Jujuy Weather History for the Previous 24 Hours

Scroll right to see more
 ConditionsComfort  
Time TempWeatherWind HumidityBarometerVisibility
5:00 pm
Thu, Aug 13
68 °FSunny.12 mph23%29.83 "Hg10 mi
4:00 pm68 °FSunny.9 mph23%29.83 "Hg10 mi
3:00 pm66 °FSunny.5 mph21%29.86 "Hg10 mi
2:00 pm66 °FSunny.5 mph18%29.86 "Hg10 mi
1:00 pm63 °FPassing clouds.8 mph22%29.92 "HgN/A
12:00 pm59 °FSunny.6 mph25%29.98 "Hg10 mi
11:00 am57 °FSunny.5 mph31%30.01 "Hg10 mi
10:00 am54 °FSunny.6 mph38%30.01 "Hg10 mi
9:00 am43 °FSunny.9 mph53%30.01 "Hg10 mi
8:00 am39 °FSunny.8 mph56%29.98 "Hg10 mi
7:00 am36 °FClear.7 mph70%29.95 "Hg6 mi
6:00 am37 °FClear.7 mph65%29.95 "Hg6 mi
5:00 am37 °FClear.7 mph70%29.95 "Hg6 mi
4:00 am39 °FClear.7 mph61%29.95 "Hg6 mi
3:00 am43 °FClear.7 mph57%29.98 "Hg6 mi
2:00 am45 °FClear.9 mph53%29.98 "Hg6 mi
1:00 am43 °FClear.7 mph46%30.01 "Hg6 mi
12:00 am45 °FClear.7 mph53%30.01 "Hg6 mi
10:00 pm
Wed, Aug 12
45 °FClear.5 mph53%29.95 "Hg6 mi
9:00 pm46 °FClear.3 mph50%29.95 "Hg10 mi
8:00 pm54 °FClear.2 mph47%29.92 "Hg6 mi
7:00 pm59 °FSunny.6 mph36%29.89 "Hg10 mi
6:00 pm64 °FSunny.9 mph26%29.86 "Hg10 mi
Weather by CustomWeather, © 2020

See weather overview